When you browse on this site, cookies collect data to enhance your experience and personalize the content and advertising you see.
Visit our Privacy Policy to learn more. By continuing to use the site, you agree to this use of cookies and data.
  • In Spain
  • List of Countries
  • For 7 days
  • Water Temperature
  • Weather Map
  • Weather Widgets
  • user-avatar
    Login

    Hourly Weather Cervinia

    Today, 30 May, Saturday

    Time Temperature Precipitation Wind Pressure Humidity
    00:00 +9°C° 0 mm 1 mps 672 mmHg 93%
    01:00 +8°C° 0 mm 0 mps 672 mmHg 93%
    02:00 +8°C° 0 mm 0 mps 672 mmHg 93%
    03:00 +8°C° 0 mm 0 mps 672 mmHg 93%
    04:00 +9°C° 0 mm 0 mps 672 mmHg 89%
    05:00 +10°C° 0 mm 0 mps 672 mmHg 86%
    06:00 +11°C° 0 mm 1 mps 672 mmHg 82%
    07:00 +13°C° 0 mm 1 mps 672 mmHg 76%
    08:00 +14°C° 0 mm 1 mps 672 mmHg 69%
    09:00 +16°C° 0 mm 1 mps 672 mmHg 63%
    10:00 +16°C° 0.1 mm 2 mps 672 mmHg 63%
    11:00 +16°C° 0.1 mm 2 mps 671 mmHg 63%
    12:00 +16°C° 0.1 mm 2 mps 671 mmHg 64%
    13:00 +16°C° 0.8 mm 2 mps 671 mmHg 68%
    14:00 +16°C° 0.8 mm 2 mps 671 mmHg 73%
    15:00 +15°C° 0.8 mm 2 mps 670 mmHg 78%
    16:00 +15°C° 0.9 mm 2 mps 670 mmHg 81%
    17:00 +14°C° 0.9 mm 2 mps 670 mmHg 85%
    18:00 +13°C° 0.9 mm 1 mps 670 mmHg 88%
    19:00 +12°C° 0.2 mm 1 mps 670 mmHg 89%
    20:00 +11°C° 0.2 mm 1 mps 670 mmHg 90%
    21:00 +10°C° 0.2 mm 1 mps 670 mmHg 92%
    22:00 +9°C° 0 mm 0 mps 670 mmHg 92%
    23:00 +8°C° 0 mm 0 mps 670 mmHg 91%

    Tomorrow, 31 May, Sunday

    Time Temperature Precipitation Wind Pressure Humidity
    00:00 +8°C° 0 mm 0 mps 669 mmHg 91%
    01:00 +8°C° 0 mm 0 mps 669 mmHg 92%
    02:00 +8°C° 0 mm 0 mps 670 mmHg 92%
    03:00 +7°C° 0 mm 0 mps 670 mmHg 92%
    04:00 +9°C° 0.1 mm 0 mps 670 mmHg 90%
    05:00 +10°C° 0.1 mm 0 mps 670 mmHg 87%
    06:00 +11°C° 0.1 mm 0 mps 671 mmHg 84%
    07:00 +13°C° 0 mm 1 mps 671 mmHg 78%
    08:00 +14°C° 0 mm 1 mps 671 mmHg 72%
    09:00 +16°C° 0 mm 1 mps 671 mmHg 67%
    10:00 +16°C° 0.1 mm 2 mps 671 mmHg 65%
    11:00 +17°C° 0.1 mm 2 mps 671 mmHg 63%
    12:00 +18°C° 0.1 mm 2 mps 671 mmHg 61%
    13:00 +18°C° 0.5 mm 2 mps 671 mmHg 63%
    14:00 +18°C° 0.5 mm 2 mps 671 mmHg 65%
    15:00 +18°C° 0.5 mm 2 mps 671 mmHg 68%
    16:00 +17°C° 0.5 mm 2 mps 671 mmHg 73%
    17:00 +16°C° 0.5 mm 1 mps 671 mmHg 78%
    18:00 +15°C° 0.5 mm 1 mps 671 mmHg 84%
    19:00 +14°C° 0 mm 1 mps 670 mmHg 86%
    20:00 +12°C° 0 mm 1 mps 670 mmHg 88%
    21:00 +10°C° 0 mm 0 mps 670 mmHg 90%
    22:00 +9°C° 0 mm 0 mps 670 mmHg 90%
    23:00 +9°C° 0 mm 0 mps 670 mmHg 89%

    Day after tomorrow, 1 June, Monday

    Time Temperature Precipitation Wind Pressure Humidity
    00:00 +9°C° 0 mm 0 mps 670 mmHg 88%
    01:00 +9°C° 0 mm 0 mps 670 mmHg 88%
    02:00 +8°C° 0 mm 0 mps 670 mmHg 88%
    03:00 +8°C° 0 mm 0 mps 670 mmHg 88%
    04:00 +10°C° 0 mm 0 mps 671 mmHg 84%
    05:00 +11°C° 0 mm 0 mps 671 mmHg 80%
    06:00 +13°C° 0 mm 0 mps 672 mmHg 76%
    07:00 +14°C° 0 mm 0 mps 672 mmHg 71%
    08:00 +18°C° 0 mm 1 mps 672 mmHg 65%
    09:00 +19°C° 0 mm 1 mps 672 mmHg 60%
    10:00 +19°C° 0.1 mm 2 mps 672 mmHg 59%
    11:00 +19°C° 0.1 mm 2 mps 672 mmHg 58%
    12:00 +20°C° 0.1 mm 2 mps 672 mmHg 57%
    13:00 +19°C° 0.4 mm 2 mps 672 mmHg 62%
    14:00 +19°C° 0.4 mm 2 mps 672 mmHg 66%
    15:00 +19°C° 0.4 mm 2 mps 671 mmHg 71%
    16:00 +18°C° 0.9 mm 2 mps 671 mmHg 76%
    17:00 +18°C° 0.9 mm 1 mps 671 mmHg 82%
    18:00 +16°C° 0.9 mm 1 mps 671 mmHg 88%
    19:00 +15°C° 0.8 mm 1 mps 671 mmHg 90%
    20:00 +14°C° 0.8 mm 1 mps 671 mmHg 91%
    21:00 +13°C° 0.8 mm 1 mps 672 mmHg 93%
    22:00 +13°C° 0.2 mm 1 mps 671 mmHg 93%
    23:00 +12°C° 0.2 mm 1 mps 671 mmHg 92%

    2 June, Tuesday

    Time Temperature Precipitation Wind Pressure Humidity
    00:00 +11°C° 0.2 mm 0 mps 671 mmHg 92%
    01:00 +10°C° 0 mm 0 mps 671 mmHg 92%
    02:00 +10°C° 0 mm 0 mps 670 mmHg 92%
    03:00 +9°C° 0 mm 0 mps 670 mmHg 93%
    04:00 +11°C° 0 mm 0 mps 671 mmHg 89%
    05:00 +12°C° 0 mm 0 mps 671 mmHg 86%
    06:00 +13°C° 0 mm 0 mps 671 mmHg 82%
    07:00 +16°C° 0 mm 1 mps 672 mmHg 77%
    08:00 +19°C° 0 mm 1 mps 672 mmHg 72%
    09:00 +20°C° 0 mm 1 mps 672 mmHg 67%
    10:00 +20°C° 0.3 mm 2 mps 672 mmHg 66%
    11:00 +20°C° 0.3 mm 2 mps 672 mmHg 66%
    12:00 +20°C° 0.3 mm 2 mps 671 mmHg 65%
    13:00 +20°C° 0.6 mm 2 mps 671 mmHg 66%
    14:00 +20°C° 0.6 mm 2 mps 671 mmHg 68%
    15:00 +20°C° 0.6 mm 2 mps 670 mmHg 69%
    16:00 +19°C° 0.4 mm 2 mps 670 mmHg 73%
    17:00 +18°C° 0.4 mm 2 mps 670 mmHg 77%
    18:00 +19°C° 0.4 mm 1 mps 669 mmHg 81%
    19:00 +16°C° 0.1 mm 1 mps 669 mmHg 83%
    20:00 +15°C° 0.1 mm 1 mps 669 mmHg 85%
    21:00 +13°C° 0.1 mm 1 mps 669 mmHg 87%
    22:00 +12°C° 0.1 mm 1 mps 668 mmHg 87%
    23:00 +12°C° 0.1 mm 1 mps 668 mmHg 87%

    3 June, Wednesday

    Time Temperature Precipitation Wind Pressure Humidity
    00:00 +11°C° 0.1 mm 1 mps 668 mmHg 88%
    01:00 +11°C° 0 mm 1 mps 667 mmHg 87%
    02:00 +11°C° 0 mm 1 mps 667 mmHg 87%
    03:00 +9°C° 0 mm 0 mps 667 mmHg 87%
    04:00 +11°C° 0 mm 0 mps 667 mmHg 82%
    05:00 +13°C° 0 mm 0 mps 667 mmHg 77%
    06:00 +14°C° 0 mm 0 mps 667 mmHg 73%
    07:00 +16°C° 0 mm 0 mps 667 mmHg 67%
    08:00 +19°C° 0 mm 1 mps 668 mmHg 62%
    09:00 +21°C° 0 mm 1 mps 668 mmHg 56%
    10:00 +21°C° 0.1 mm 1 mps 667 mmHg 56%
    11:00 +21°C° 0.1 mm 2 mps 667 mmHg 55%
    12:00 +21°C° 0.1 mm 2 mps 667 mmHg 54%
    13:00 +21°C° 0.4 mm 2 mps 666 mmHg 59%
    14:00 +20°C° 0.4 mm 2 mps 666 mmHg 63%
    15:00 +20°C° 0.4 mm 2 mps 665 mmHg 68%
    16:00 +19°C° 0.7 mm 2 mps 665 mmHg 73%
    17:00 +19°C° 0.7 mm 1 mps 665 mmHg 79%
    18:00 +18°C° 0.7 mm 1 mps 665 mmHg 85%
    19:00 +16°C° 0.4 mm 1 mps 665 mmHg 88%
    20:00 +15°C° 0.4 mm 1 mps 665 mmHg 91%
    21:00 +15°C° 0.4 mm 1 mps 665 mmHg 94%
    22:00 +14°C° 0.2 mm 1 mps 665 mmHg 94%
    23:00 +14°C° 0.2 mm 2 mps 665 mmHg 95%

    4 June, Thursday

    Time Temperature Precipitation Wind Pressure Humidity
    00:00 +14°C° 0.2 mm 2 mps 664 mmHg 95%
    01:00 +14°C° 0.1 mm 2 mps 664 mmHg 95%
    02:00 +14°C° 0.1 mm 2 mps 664 mmHg 95%
    03:00 +14°C° 0.1 mm 2 mps 664 mmHg 96%
    04:00 +14°C° 0.4 mm 2 mps 664 mmHg 95%
    05:00 +14°C° 0.4 mm 2 mps 664 mmHg 95%
    06:00 +14°C° 0.4 mm 2 mps 664 mmHg 95%
    07:00 +14°C° 0.7 mm 2 mps 664 mmHg 94%
    08:00 +15°C° 0.7 mm 2 mps 664 mmHg 94%
    09:00 +15°C° 0.7 mm 2 mps 664 mmHg 94%
    10:00 +15°C° 0.6 mm 2 mps 664 mmHg 93%
    11:00 +15°C° 0.6 mm 2 mps 664 mmHg 93%
    12:00 +15°C° 0.6 mm 2 mps 664 mmHg 93%
    13:00 +15°C° 0.4 mm 2 mps 664 mmHg 93%
    14:00 +15°C° 0.4 mm 2 mps 664 mmHg 93%
    15:00 +15°C° 0.4 mm 1 mps 664 mmHg 93%
    16:00 +15°C° 0.1 mm 2 mps 664 mmHg 94%
    17:00 +15°C° 0.1 mm 2 mps 664 mmHg 94%
    18:00 +15°C° 0.1 mm 2 mps 664 mmHg 94%
    19:00 +14°C° 0.1 mm 2 mps 664 mmHg 95%
    20:00 +14°C° 0.1 mm 2 mps 664 mmHg 95%
    21:00 +14°C° 0.1 mm 2 mps 664 mmHg 96%
    22:00 +13°C° 0.2 mm 2 mps 663 mmHg 96%
    23:00 +12°C° 0.2 mm 3 mps 663 mmHg 96%
    Show more